When you browse on this site, cookies collect data to enhance your experience and personalize the content and advertising you see.
Visit our Privacy Policy to learn more. By continuing to use the site, you agree to this use of cookies and data.
  • în România
  • Lista ţărilor
  • Pe 7 zile
  • Temperatura apei
  • Hartă satelitară
  • Meteo pe hartă
  • Widget-uri
  • user-avatar
    Intrare

    Meteo pe oră la Encamp

    Astăzi, 27 Martie, Miercuri

    Timp Temperatura Precipitaţii Vânt Presiune Umiditate
    00:00 -4°C° 0 mm 2 m/s 624 mmHg 66%
    01:00 -4°C° 0 mm 2 m/s 624 mmHg 63%
    02:00 -4°C° 0 mm 2 m/s 624 mmHg 60%
    03:00 -4°C° 0 mm 2 m/s 624 mmHg 57%
    04:00 -4°C° 0 mm 2 m/s 624 mmHg 51%
    05:00 -4°C° 0 mm 2 m/s 624 mmHg 46%
    06:00 -3°C° 0 mm 2 m/s 624 mmHg 40%
    07:00 -1°C° 0 mm 2 m/s 626 mmHg 34%
    08:00 +3°C° 0 mm 2 m/s 627 mmHg 29%
    09:00 +6°C° 0 mm 2 m/s 628 mmHg 23%
    10:00 +7°C° 0 mm 2 m/s 628 mmHg 23%
    11:00 +8°C° 0 mm 2 m/s 629 mmHg 23%
    12:00 +9°C° 0 mm 2 m/s 629 mmHg 24%
    13:00 +9°C° 0 mm 2 m/s 629 mmHg 26%
    14:00 +9°C° 0 mm 2 m/s 628 mmHg 28%
    15:00 +8°C° 0 mm 2 m/s 628 mmHg 30%
    16:00 +6°C° 0 mm 2 m/s 627 mmHg 40%
    17:00 +4°C° 0 mm 2 m/s 627 mmHg 49%
    18:00 +2°C° 0 mm 2 m/s 626 mmHg 59%
    19:00 +1°C° 0 mm 2 m/s 626 mmHg 65%
    20:00 -1°C° 0 mm 2 m/s 626 mmHg 71%
    21:00 -2°C° 0 mm 2 m/s 626 mmHg 76%
    22:00 -2°C° 0 mm 2 m/s 626 mmHg 73%
    23:00 0°C° 0 mm 1 m/s 627 mmHg 70%

    Mâine, 28 Martie, Joi

    Timp Temperatura Precipitaţii Vânt Presiune Umiditate
    00:00 0°C° 0 mm 1 m/s 627 mmHg 68%
    01:00 0°C° 0 mm 1 m/s 627 mmHg 68%
    02:00 0°C° 0 mm 1 m/s 627 mmHg 69%
    03:00 0°C° 0 mm 1 m/s 627 mmHg 70%
    04:00 0°C° 0 mm 1 m/s 627 mmHg 71%
    05:00 0°C° 0 mm 1 m/s 627 mmHg 72%
    06:00 0°C° 0 mm 1 m/s 627 mmHg 74%
    07:00 +1°C° 0 mm 2 m/s 628 mmHg 64%
    08:00 +4°C° 0 mm 2 m/s 629 mmHg 53%
    09:00 +6°C° 0 mm 2 m/s 630 mmHg 43%
    10:00 +7°C° 0 mm 2 m/s 630 mmHg 40%
    11:00 +9°C° 0 mm 2 m/s 631 mmHg 36%
    12:00 +10°C° 0 mm 2 m/s 631 mmHg 33%
    13:00 +9°C° 0 mm 2 m/s 630 mmHg 36%
    14:00 +9°C° 0 mm 2 m/s 630 mmHg 38%
    15:00 +9°C° 0 mm 2 m/s 629 mmHg 40%
    16:00 +7°C° 0 mm 2 m/s 629 mmHg 51%
    17:00 +6°C° 0 mm 1 m/s 628 mmHg 61%
    18:00 +4°C° 0 mm 1 m/s 627 mmHg 71%
    19:00 +3°C° 0 mm 1 m/s 627 mmHg 76%
    20:00 +1°C° 0 mm 0 m/s 627 mmHg 80%
    21:00 0°C° 0 mm 0 m/s 627 mmHg 85%
    22:00 0°C° 0 mm 0 m/s 627 mmHg 86%
    23:00 +1°C° 0 mm 1 m/s 627 mmHg 88%

    Poimâine, 29 Martie, Vineri

    Timp Temperatura Precipitaţii Vânt Presiune Umiditate
    00:00 +1°C° 0 mm 1 m/s 627 mmHg 89%
    01:00 +1°C° 0 mm 1 m/s 627 mmHg 89%
    02:00 +1°C° 0 mm 1 m/s 627 mmHg 89%
    03:00 +1°C° 0 mm 1 m/s 627 mmHg 90%
    04:00 0°C° 0 mm 1 m/s 627 mmHg 90%
    05:00 0°C° 0 mm 1 m/s 627 mmHg 90%
    06:00 0°C° 0 mm 1 m/s 627 mmHg 91%
    07:00 +3°C° 0 mm 1 m/s 628 mmHg 80%
    08:00 +5°C° 0 mm 1 m/s 628 mmHg 69%
    09:00 +6°C° 0 mm 2 m/s 629 mmHg 57%
    10:00 +6°C° 0.1 mm 2 m/s 629 mmHg 57%
    11:00 +6°C° 0.1 mm 2 m/s 629 mmHg 56%
    12:00 +7°C° 0.1 mm 2 m/s 629 mmHg 55%
    13:00 +7°C° 0.1 mm 2 m/s 629 mmHg 55%
    14:00 +7°C° 0.1 mm 2 m/s 628 mmHg 56%
    15:00 +6°C° 0.1 mm 2 m/s 628 mmHg 56%
    16:00 +7°C° 0.1 mm 1 m/s 628 mmHg 61%
    17:00 +6°C° 0.1 mm 1 m/s 627 mmHg 65%
    18:00 +5°C° 0.1 mm 1 m/s 627 mmHg 69%
    19:00 +4°C° 0.1 mm 1 m/s 627 mmHg 74%
    20:00 +3°C° 0.1 mm 1 m/s 627 mmHg 78%
    21:00 +2°C° 0.1 mm 1 m/s 627 mmHg 83%
    22:00 +1°C° 0 mm 1 m/s 626 mmHg 83%
    23:00 +1°C° 0 mm 1 m/s 626 mmHg 84%

    30 Martie, Sâmbătă

    Timp Temperatura Precipitaţii Vânt Presiune Umiditate
    00:00 0°C° 0 mm 1 m/s 626 mmHg 85%
    01:00 0°C° 0 mm 1 m/s 625 mmHg 84%
    02:00 0°C° 0 mm 1 m/s 625 mmHg 83%
    03:00 0°C° 0 mm 1 m/s 625 mmHg 82%
    04:00 0°C° 0 mm 1 m/s 625 mmHg 80%
    05:00 0°C° 0 mm 1 m/s 625 mmHg 78%
    06:00 0°C° 0 mm 1 m/s 624 mmHg 77%
    07:00 +2°C° 0 mm 1 m/s 626 mmHg 63%
    08:00 +4°C° 0 mm 2 m/s 627 mmHg 48%
    09:00 +7°C° 0 mm 2 m/s 628 mmHg 34%
    10:00 +8°C° 0 mm 2 m/s 628 mmHg 31%
    11:00 +9°C° 0 mm 2 m/s 628 mmHg 28%
    12:00 +10°C° 0 mm 2 m/s 628 mmHg 25%
    13:00 +10°C° 0 mm 2 m/s 628 mmHg 27%
    14:00 +10°C° 0 mm 2 m/s 627 mmHg 28%
    15:00 +9°C° 0 mm 2 m/s 627 mmHg 30%
    16:00 +7°C° 0 mm 2 m/s 626 mmHg 39%
    17:00 +7°C° 0 mm 1 m/s 625 mmHg 48%
    18:00 +5°C° 0 mm 1 m/s 624 mmHg 56%
    19:00 +4°C° 0 mm 1 m/s 624 mmHg 62%
    20:00 +2°C° 0 mm 1 m/s 624 mmHg 67%
    21:00 +1°C° 0 mm 1 m/s 624 mmHg 73%
    22:00 +1°C° 0 mm 1 m/s 624 mmHg 72%
    23:00 +1°C° 0 mm 1 m/s 623 mmHg 71%

    31 Martie, Duminică

    Timp Temperatura Precipitaţii Vânt Presiune Umiditate
    00:00 +1°C° 0 mm 1 m/s 623 mmHg 71%
    01:00 +1°C° 0 mm 1 m/s 623 mmHg 70%
    02:00 +1°C° 0 mm 1 m/s 623 mmHg 69%
    03:00 +1°C° 0 mm 1 m/s 622 mmHg 69%
    04:00 +1°C° 0 mm 1 m/s 622 mmHg 68%
    05:00 +1°C° 0 mm 1 m/s 622 mmHg 68%
    06:00 +1°C° 0 mm 1 m/s 622 mmHg 68%
    07:00 +4°C° 0 mm 1 m/s 623 mmHg 59%
    08:00 +5°C° 0 mm 0 m/s 624 mmHg 50%
    09:00 +8°C° 0 mm 0 m/s 625 mmHg 42%
    10:00 +10°C° 0 mm 1 m/s 625 mmHg 40%
    11:00 +10°C° 0 mm 1 m/s 625 mmHg 38%
    12:00 +10°C° 0 mm 1 m/s 625 mmHg 36%
    13:00 +10°C° 0 mm 1 m/s 624 mmHg 38%
    14:00 +10°C° 0 mm 1 m/s 624 mmHg 41%
    15:00 +10°C° 0 mm 1 m/s 623 mmHg 43%
    16:00 +8°C° 0 mm 1 m/s 623 mmHg 52%
    17:00 +7°C° 0 mm 1 m/s 623 mmHg 61%
    18:00 +5°C° 0 mm 0 m/s 622 mmHg 70%
    19:00 +4°C° 0.1 mm 0 m/s 622 mmHg 75%
    20:00 +4°C° 0.1 mm 0 m/s 622 mmHg 79%
    21:00 +4°C° 0.1 mm 1 m/s 622 mmHg 83%
    22:00 +3°C° 0 mm 0 m/s 622 mmHg 82%
    23:00 +3°C° 0 mm 0 m/s 622 mmHg 82%

    1 Aprilie, Luni

    Timp Temperatura Precipitaţii Vânt Presiune Umiditate
    00:00 +3°C° 0 mm 0 m/s 621 mmHg 81%
    01:00 +3°C° 0 mm 1 m/s 621 mmHg 77%
    02:00 +3°C° 0 mm 1 m/s 621 mmHg 73%
    03:00 +3°C° 0 mm 1 m/s 621 mmHg 69%
    04:00 +3°C° 0 mm 1 m/s 621 mmHg 62%
    05:00 +3°C° 0 mm 1 m/s 621 mmHg 55%
    06:00 +3°C° 0 mm 1 m/s 621 mmHg 48%
    07:00 +4°C° 0 mm 1 m/s 622 mmHg 43%
    08:00 +6°C° 0 mm 1 m/s 622 mmHg 37%
    09:00 +7°C° 0 mm 1 m/s 623 mmHg 31%
    10:00 +8°C° 0 mm 1 m/s 623 mmHg 33%
    11:00 +8°C° 0 mm 1 m/s 623 mmHg 35%
    12:00 +9°C° 0 mm 1 m/s 623 mmHg 37%
    13:00 +8°C° 0.1 mm 1 m/s 623 mmHg 41%
    14:00 +8°C° 0.1 mm 1 m/s 622 mmHg 45%
    15:00 +7°C° 0.1 mm 1 m/s 622 mmHg 49%
    16:00 +7°C° 0.1 mm 1 m/s 622 mmHg 54%
    17:00 +6°C° 0.1 mm 1 m/s 621 mmHg 59%
    18:00 +5°C° 0.1 mm 1 m/s 621 mmHg 64%
    19:00 +4°C° 0 mm 1 m/s 621 mmHg 67%
    20:00 +4°C° 0 mm 1 m/s 621 mmHg 70%
    21:00 +3°C° 0 mm 1 m/s 622 mmHg 73%
    22:00 +3°C° 0 mm 1 m/s 621 mmHg 73%
    23:00 +3°C° 0 mm 1 m/s 621 mmHg 74%
    Arată mai mult